TimeEST,TemperatureF,Dew PointF,Humidity,Sea Level PressureIn,VisibilityMPH,Wind Direction,Wind SpeedMPH,Gust SpeedMPH,PrecipitationIn,Events,Conditions,WindDirDegrees,DateUTC
12:52 AM,9.0,-0.0,67,29.86,10.0,NNW,13.8,-,0.00,,Mostly Cloudy,340,2014-01-22 05:52:00
1:52 AM,9.0,-2.9,59,29.86,10.0,North,6.9,-,N/A,,Overcast,360,2014-01-22 06:52:00
2:52 AM,9.0,-5.1,53,29.85,10.0,North,11.5,-,N/A,,Clear,360,2014-01-22 07:52:00
3:52 AM,8.1,-5.1,55,29.83,10.0,NNW,11.5,-,N/A,,Partly Cloudy,340,2014-01-22 08:52:00
4:52 AM,8.1,-6.0,53,29.81,10.0,North,12.7,-,N/A,,Mostly Cloudy,350,2014-01-22 09:52:00
5:52 AM,8.1,-8.0,48,29.82,10.0,North,12.7,-,N/A,,Overcast,360,2014-01-22 10:52:00
6:52 AM,7.0,-9.0,48,29.82,10.0,NNW,12.7,-,N/A,,Scattered Clouds,340,2014-01-22 11:52:00
7:52 AM,7.0,-9.9,46,29.80,10.0,North,11.5,23.0,N/A,,Clear,360,2014-01-22 12:52:00
8:52 AM,7.0,-9.9,46,29.79,10.0,North,17.3,-,N/A,,Clear,360,2014-01-22 13:52:00
9:52 AM,9.0,-9.9,42,29.77,10.0,North,17.3,26.5,N/A,,Clear,350,2014-01-22 14:52:00
10:52 AM,10.9,-9.0,40,29.73,10.0,North,15.0,27.6,N/A,,Clear,350,2014-01-22 15:52:00
11:52 AM,14.0,-7.1,39,29.68,10.0,NNW,15.0,23.0,N/A,,Clear,340,2014-01-22 16:52:00
12:52 PM,16.0,-6.0,38,29.68,10.0,North,11.5,20.7,N/A,,Clear,350,2014-01-22 17:52:00
1:52 PM,18.0,-6.0,35,29.69,10.0,NNW,13.8,23.0,N/A,,Clear,340,2014-01-22 18:52:00
2:22 PM,17.1,-6.0,36,29.68,10.0,WNW,16.1,-,N/A,,Clear,300,2014-01-22 19:22:00
2:52 PM,16.0,-7.1,36,29.72,10.0,West,17.3,-,N/A,,Clear,280,2014-01-22 19:52:00
3:52 PM,15.1,-7.1,37,29.75,10.0,NW,13.8,21.9,N/A,,Clear,310,2014-01-22 20:52:00
4:52 PM,12.9,-7.1,41,29.78,10.0,WNW,8.1,-,N/A,,Clear,300,2014-01-22 21:52:00
5:52 PM,10.9,-7.1,44,29.80,10.0,NW,6.9,-,N/A,,Clear,310,2014-01-22 22:52:00
6:52 PM,10.0,-8.0,44,29.82,10.0,WNW,9.2,-,N/A,,Clear,300,2014-01-22 23:52:00
7:52 PM,9.0,-8.0,46,29.84,10.0,WNW,13.8,-,N/A,,Clear,300,2014-01-23 00:52:00
8:52 PM,7.0,-8.0,51,29.86,10.0,NW,10.4,-,N/A,,Clear,310,2014-01-23 01:52:00
9:52 PM,7.0,-9.0,48,29.88,10.0,NW,8.1,-,N/A,,Clear,320,2014-01-23 02:52:00
10:52 PM,7.0,-9.0,48,29.90,10.0,NNW,10.4,-,N/A,,Clear,330,2014-01-23 03:52:00
11:52 PM,6.1,-9.0,50,29.90,10.0,NNW,11.5,-,N/A,,Clear,330,2014-01-23 04:52:00